Location: Chavannes
(47.1090°N, 0.2226°W)
Time: 04:05:55
(UTC+00:00)

OPS 6432 - Pass Details

Date: 16 October 2021
Orbit: 369 x 1711 km, 63.3° (Epoch: 13 June)

Event Time Altitude Azimuth Distance (km) Brightness Sun altitude
Rises 18:40:10 0° 323° (NW) 2,229 8.5 -15.8°
Reaches altitude 10° 18:42:06 10° 329° (NNW) 1,392 7.3 -16.2°
Maximum altitude 18:45:00 52° 48° (NE) 513 4.4 -16.7°
Enters shadow 18:45:27 47° 80° (E) 558 4.4 -16.7°
